[[{"header":{"parameterUnit":"m.s-1","parameterCategory":1,"la1":30.2991,"la2":30.254,"lo1":-89.0895,"lo2":-89.0444,"dy":0.0017,"dx":0.0017,"nx":28,"ny":28,"refTime":"2024-03-27T21:00:00:Z","depth":0,"parameterNumber":2,"parameterNumberName":"U-component_of_WINDS"},"data":[0,0,0,0,0,0,0,0,0,0,0,0,0,0,0,0,0,0,0,0,0,0,0,0,0,0,0,0,0,0,0,0,0,0,0,0,0,0,0,0,0,0,0,0,0,0,0,0,0,0,0,0,0,0,0,0,0,0,-3.1974,-3.1974,0,-3.1961,-3.1961,-3.196,-3.1808,-3.1804,-3.1801,-3.1797,-3.1786,-3.1789,-3.1793,0,0,0,0,0,0,0,0,0,0,0,0,0,-3.1869,-3.1872,-3.1974,-3.1974,-3.1974,-3.1961,-3.1961,-3.196,-3.1809,-3.1804,-3.18,-3.1795,-3.1785,-3.1789,-3.1793,0,0,0,0,0,0,0,0,0,0,0,0,0,-3.1892,-3.1873,-3.1974,-3.1896,-3.1889,-3.1961,-3.1961,-3.196,-3.181,-3.1804,-3.1798,-3.1793,-3.1784,-3.1789,-3.1794,-3.1939,0,0,-3.1809,-3.1811,0,0,0,0,0,0,0,0,-3.189,-3.1896,-3.1908,-3.1902,-3.1894,-3.188,-3.192,-3.1954,-3.1811,-3.184,-3.1797,-3.179,-3.1822,-3.1824,-3.1834,-3.1939,-3.1938,-3.1809,-3.1812,-3.1814,-3.1816,0,0,0,0,0,0,0,-3.1889,-3.1895,-3.1969,-3.1908,-3.19,-3.1863,-3.1859,-3.1925,-3.1864,-3.1837,-3.1826,-3.1826,-3.1817,-3.183,-3.1833,-3.1938,-3.1809,-3.1813,-3.1816,-3.1818,-3.2161,-3.2167,0,0,0,0,0,0,-3.1898,-3.1895,-3.1969,-3.1968,-3.1878,-3.1869,-3.1866,-3.1891,-3.1863,-3.1853,-3.1831,-3.1819,-3.1824,-3.1827,-3.1832,-3.1999,-3.1814,-3.1819,-3.1822,-3.2155,-3.2162,-3.2169,0,0,0,0,0,0,-3.1896,-3.1906,-3.197,-3.1929,-3.1934,-3.1877,-3.1906,-3.1893,-3.1905,-3.1858,-3.1847,-3.1855,-3.182,-3.1825,-3.1913,-3.1997,-3.1821,-3.1826,-3.2147,-3.2157,-3.2165,-3.2337,0,0,0,0,0,0,-3.1894,-3.1906,-3.1961,-3.1931,-3.1937,-3.2052,-3.1911,-3.1897,-3.1914,-3.1898,-3.1877,-3.1868,-3.1816,-3.1907,-3.1918,-3.2001,-3.1829,-3.214,-3.2152,-3.2162,-3.2324,-3.2351,-3.2375,0,0,0,0,0,-3.1891,-3.2011,-3.1965,-3.1974,-3.2004,-3.2057,-3.206,-3.1996,-3.1921,-3.1976,-3.1945,-3.1869,-3.1986,-3.1917,-3.1929,-3.2014,-3.2134,-3.2148,-3.2162,-3.2313,-3.2346,-3.2374,0,0,0,0,0,0,-3.2053,-3.2006,-3.1954,-3.2067,-3.2067,-3.2031,-3.2097,-3.2033,-3.2055,-3.2039,-3.196,-3.1956,-3.2057,-3.2044,-3.1968,-3.2153,-3.2047,-3.2064,-3.2158,-3.2189,-3.2214,-3.2215,-3.1834,0,0,0,0,0,-3.2102,-3.2149,-3.2105,-3.2209,-3.2212,-3.2155,-3.2176,-3.2126,-3.2123,-3.2123,-3.2099,-3.2099,-3.2135,-3.2162,-3.2193,-3.2321,-3.2314,-3.2386,-3.2411,-3.2432,-3.2448,-3.2514,-3.2545,-3.2214,-3.2214,-3.2214,0,0,-3.2204,-3.2184,-3.2218,-3.2241,-3.2235,-3.2285,-3.2156,-3.2215,-3.2251,-3.2132,-3.2213,-3.2196,-3.2191,-3.23,-3.2347,-3.2293,-3.2537,-3.245,-3.2467,-3.2471,-3.2531,-3.2562,-3.259,-3.2223,-3.2222,-3.222,0,0,-3.2415,-3.2405,-3.249,-3.2486,-3.2478,-3.2439,-3.246,-3.2434,-3.2417,-3.2497,-3.2408,-3.2451,-3.2516,-3.2516,-3.2524,-3.2735,-3.2665,-3.2747,-3.288,-3.2945,-3.2971,-3.2994,-3.3068,-3.3096,-3.2763,-3.2763,-3.2764,0,-3.2543,-3.2614,-3.2542,-3.2606,-3.2619,-3.2512,-3.2598,-3.2598,-3.2601,-3.2613,-3.2552,-3.263,-3.2619,-3.2726,-3.2778,-3.2788,-3.2809,-3.2749,-3.2973,-3.2995,-3.3015,-3.3085,-3.3113,-3.2773,-3.2772,-3.2771,-3.277,0,-3.2771,-3.2822,-3.2892,-3.2896,-3.2917,-3.2992,-3.2932,-3.2961,-3.291,-3.2878,-3.2961,-3.2945,-3.297,-3.2992,-3.2943,-3.3092,-3.3058,-3.2987,-3.2878,-3.3058,-3.3122,-3.3148,-3.2787,-3.2784,-3.2781,-3.2778,0,0,-3.3084,-3.3047,-3.3074,-3.3074,-3.3057,-3.3095,-3.3165,-3.3189,-3.3216,-3.3222,-3.3278,-3.3335,-3.3268,-3.3278,-3.3228,-3.3286,-3.3453,-3.3207,-3.3205,-3.3252,-3.3615,-3.3668,-3.3701,-3.3407,-3.3411,-3.3415,-3.3615,0,-3.3287,-3.3403,-3.334,-3.3465,-3.3511,-3.3409,-3.347,-3.3467,-3.3439,-3.3474,-3.3443,-3.3485,-3.3394,-3.3399,-3.3451,-3.3421,-3.3524,-3.3406,-3.3459,-3.3461,-3.3462,-3.3734,-3.3791,-3.398,-3.364,-3.3644,-3.3647,0,-3.3538,-3.3553,-3.3683,-3.3656,-3.3672,-3.3728,-3.3744,-3.3779,-3.3773,-3.3749,-3.376,-3.3696,-3.3763,-3.3657,-3.3748,-3.3669,-3.3687,-3.3675,-3.3681,-3.3683,-3.3565,-3.3743,-3.4039,-3.4067,-3.3686,-3.3683,-3.368,0,-3.3752,-3.3805,-3.3889,-3.3892,-3.3863,-3.3905,-3.3895,-3.3883,-3.3901,-3.3916,-3.3926,-3.395,-3.3962,-3.3982,-3.3926,-3.3853,-3.4025,-3.3913,-3.4006,-3.4008,-3.4046,-3.4044,-3.4349,-3.406,-3.4059,-3.4059,-3.4058,0,-3.3984,-3.4067,-3.3984,-3.4036,-3.4126,-3.4053,-3.4144,-3.4123,-3.4114,-3.416,-3.4074,-3.412,-3.4043,-3.4081,-3.4038,-3.412,-3.4127,-3.4109,-3.4096,-3.4116,-3.4118,-3.4126,-3.4111,-3.4066,-3.4065,-3.4063,-3.4062,0,-3.4238,-3.4186,-3.427,-3.4236,-3.4229,-3.4297,-3.4267,-3.4314,-3.428,-3.4339,-3.4349,-3.4296,-3.4336,-3.4282,-3.4318,-3.4288,-3.44,-3.4368,-3.4402,-3.4392,-3.4487,-3.4479,-3.4807,-3.4846,-3.4533,-3.4536,-3.4539,0,-3.4389,-3.445,-3.4422,-3.4445,-3.444,-3.4481,-3.4498,-3.4429,-3.4451,-3.4448,-3.4495,-3.4527,-3.4549,-3.4618,-3.4584,-3.461,-3.4577,-3.4691,-3.4581,-3.4598,-3.4578,-3.4574,-3.458,-3.4713,-3.4717,-3.472,-3.4722,0,-3.4662,-3.4633,-3.466,-3.468,-3.4702,-3.4715,-3.472,-3.4745,-3.4673,-3.4702,-3.4741,-3.4758,-3.4793,-3.4827,-3.4844,-3.4834,-3.4767,-3.4757,-3.478,-3.48,-3.4816,-3.4807,-3.4462,-3.475,-3.4747,-3.4745,-3.4743,-3.4742,-3.4868,-3.4917,-3.4904,-3.4938,-3.4934,-3.4942,-3.4983,-3.4954,-3.4985,-3.5007,-3.4965,-3.5015,-3.5006,-3.5022,-3.502,-3.5058,-3.5009,-3.5042,-3.505,-3.5059,-3.5073,-3.4811,-3.5061,-3.506,-3.506,-3.5059,-3.5058,0,-3.5135,-3.5121,-3.5153,-3.5163,-3.519,-3.5123,-3.5126,-3.5153,-3.5197,-3.5195,-3.5218,-3.5263,-3.5295,-3.5263,-3.5288,-3.5325,-3.5295,-3.5334,-3.533,-3.5329,-3.5116,-3.5094,-3.5358,-3.5358,-3.5358,-3.5358,-3.5358,-3.5358,-3.5277,-3.5356,-3.5325,-3.5402,-3.5388,-3.5435,-3.5442,-3.5448,-3.5446,-3.5499,-3.5525,-3.5503,-3.5489,-3.5513,-3.5539,-3.5529,-3.5542,-3.5592,-3.5571,-3.5373,-3.5344,-3.5316,-3.5294,-3.5596,-3.5596,-3.5779,-3.5781,-3.5783]},{"header":{"parameterUnit":"m.s-1","parameterCategory":1,"la1":30.2991,"la2":30.254,"lo1":-89.0895,"lo2":-89.0444,"dy":0.0017,"dx":0.0017,"nx":28,"ny":28,"refTime":"2024-03-27T21:00:00:Z","depth":0,"parameterNumber":3,"parameterNumberName":"V-component_of_WINDS"},"data":[0,0,0,0,0,0,0,0,0,0,0,0,0,0,0,0,0,0,0,0,0,0,0,0,0,0,0,0,0,0,0,0,0,0,0,0,0,0,0,0,0,0,0,0,0,0,0,0,0,0,0,0,0,0,0,0,0,0,-0.6917,-0.6918,0,-0.7036,-0.7038,-0.7039,-0.7118,-0.7118,-0.7119,-0.7119,-0.7241,-0.7243,-0.7246,0,0,0,0,0,0,0,0,0,0,0,0,0,-0.6757,-0.6759,-0.6917,-0.6919,-0.692,-0.7036,-0.7038,-0.7039,-0.7117,-0.7118,-0.7119,-0.7119,-0.724,-0.7243,-0.7246,0,0,0,0,0,0,0,0,0,0,0,0,0,-0.6846,-0.676,-0.6917,-0.6973,-0.6979,-0.7036,-0.7038,-0.704,-0.7117,-0.7118,-0.7119,-0.712,-0.7239,-0.7243,-0.7247,-0.7257,0,0,-0.7259,-0.7261,0,0,0,0,0,0,0,0,-0.6841,-0.6852,-0.6963,-0.6969,-0.6976,-0.7063,-0.7026,-0.7112,-0.7117,-0.7065,-0.7119,-0.712,-0.7181,-0.719,-0.721,-0.7262,-0.7267,-0.726,-0.7262,-0.7264,-0.7265,0,0,0,0,0,0,0,-0.6835,-0.6847,-0.6964,-0.6965,-0.6973,-0.6992,-0.7006,-0.7043,-0.7117,-0.7069,-0.7075,-0.7089,-0.7185,-0.7206,-0.7214,-0.7269,-0.726,-0.7263,-0.7266,-0.7267,-0.7335,-0.7334,0,0,0,0,0,0,-0.682,-0.6841,-0.696,-0.6968,-0.6909,-0.6994,-0.701,-0.7034,-0.7117,-0.713,-0.7088,-0.7092,-0.7199,-0.7209,-0.7218,-0.7235,-0.7264,-0.7268,-0.727,-0.7335,-0.7334,-0.7334,0,0,0,0,0,0,-0.6816,-0.6829,-0.6956,-0.6906,-0.6924,-0.6996,-0.7023,-0.7036,-0.7058,-0.7131,-0.7144,-0.7096,-0.72,-0.7213,-0.7246,-0.724,-0.727,-0.7273,-0.7336,-0.7335,-0.7334,-0.7268,0,0,0,0,0,0,-0.6811,-0.6828,-0.6832,-0.6906,-0.6926,-0.6982,-0.7023,-0.7038,-0.7065,-0.7071,-0.7142,-0.7155,-0.7201,-0.724,-0.725,-0.7247,-0.7277,-0.7337,-0.7336,-0.7334,-0.7271,-0.7265,-0.726,0,0,0,0,0,-0.6805,-0.6809,-0.6832,-0.6846,-0.6934,-0.6981,-0.6993,-0.7047,-0.7064,-0.7069,-0.7116,-0.7152,-0.7239,-0.7243,-0.7255,-0.7252,-0.7338,-0.7336,-0.7334,-0.7274,-0.7266,-0.726,0,0,0,0,0,0,-0.6733,-0.682,-0.6846,-0.6875,-0.692,-0.6994,-0.7003,-0.7037,-0.7078,-0.7082,-0.7147,-0.7163,-0.719,-0.7225,-0.7227,-0.7266,-0.7293,-0.7294,-0.7242,-0.7236,-0.723,-0.7221,-0.728,0,0,0,0,0,-0.6721,-0.6752,-0.6826,-0.6844,-0.6865,-0.693,-0.6952,-0.699,-0.7039,-0.7059,-0.7108,-0.7155,-0.7193,-0.7216,-0.7255,-0.7277,-0.7293,-0.7281,-0.7275,-0.727,-0.727,-0.7284,-0.7279,-0.7329,-0.7329,-0.7329,0,0,-0.6695,-0.6746,-0.6762,-0.6831,-0.687,-0.6901,-0.6945,-0.6976,-0.7,-0.7064,-0.7099,-0.7136,-0.7192,-0.722,-0.7234,-0.725,-0.726,-0.7268,-0.7263,-0.7266,-0.7281,-0.7277,-0.7272,-0.7328,-0.7328,-0.7328,0,0,-0.6664,-0.6706,-0.6725,-0.6764,-0.6823,-0.6866,-0.687,-0.694,-0.6967,-0.7003,-0.7051,-0.708,-0.7144,-0.7182,-0.7209,-0.7192,-0.7227,-0.7202,-0.7172,-0.7185,-0.7181,-0.7178,-0.7171,-0.7168,-0.7202,-0.7202,-0.7202,0,-0.6625,-0.6674,-0.6731,-0.6759,-0.6787,-0.6846,-0.6866,-0.6901,-0.6969,-0.6987,-0.7003,-0.7084,-0.7126,-0.7163,-0.7159,-0.7179,-0.7186,-0.7195,-0.7177,-0.7174,-0.7172,-0.7167,-0.7164,-0.7199,-0.7199,-0.7199,-0.72,0,-0.6622,-0.6655,-0.6664,-0.6728,-0.6758,-0.6781,-0.6841,-0.6864,-0.6899,-0.6939,-0.6975,-0.7027,-0.7078,-0.7089,-0.7123,-0.7131,-0.7138,-0.7165,-0.7193,-0.7163,-0.7159,-0.7157,-0.7194,-0.7195,-0.7196,-0.7197,0,0,-0.6551,-0.6646,-0.6648,-0.6678,-0.6747,-0.6773,-0.6799,-0.6848,-0.6866,-0.6911,-0.6934,-0.6987,-0.7011,-0.7042,-0.7081,-0.7092,-0.7074,-0.7118,-0.712,-0.7107,-0.7085,-0.7065,-0.7062,-0.7098,-0.7098,-0.7098,-0.7081,0,-0.653,-0.658,-0.6632,-0.6663,-0.6694,-0.675,-0.6772,-0.6817,-0.6855,-0.6887,-0.693,-0.6966,-0.6996,-0.7015,-0.7028,-0.7074,-0.7071,-0.7076,-0.712,-0.7121,-0.7104,-0.706,-0.7038,-0.702,-0.7079,-0.7079,-0.7079,0,-0.6513,-0.6555,-0.6589,-0.6655,-0.667,-0.6689,-0.6738,-0.6768,-0.6819,-0.6846,-0.688,-0.6922,-0.6951,-0.6976,-0.7017,-0.7019,-0.704,-0.7065,-0.7066,-0.7072,-0.7098,-0.7064,-0.7015,-0.7012,-0.7077,-0.7077,-0.7077,0,-0.6457,-0.6522,-0.6551,-0.6575,-0.6652,-0.6664,-0.6697,-0.6749,-0.6775,-0.6818,-0.6835,-0.688,-0.6905,-0.6939,-0.6991,-0.7004,-0.7026,-0.7055,-0.705,-0.7048,-0.7052,-0.7051,-0.7006,-0.7066,-0.7066,-0.7066,-0.7066,0,-0.6429,-0.6447,-0.6527,-0.6544,-0.6567,-0.6626,-0.6646,-0.6684,-0.673,-0.6756,-0.6807,-0.683,-0.6897,-0.6928,-0.6969,-0.6997,-0.7008,-0.703,-0.7041,-0.7026,-0.7023,-0.7041,-0.7043,-0.7065,-0.7065,-0.7065,-0.7065,0,-0.637,-0.6424,-0.6459,-0.6529,-0.6547,-0.656,-0.662,-0.6639,-0.668,-0.6712,-0.6723,-0.6788,-0.6827,-0.6882,-0.6938,-0.6965,-0.6987,-0.7004,-0.697,-0.6976,-0.6967,-0.6967,-0.6931,-0.693,-0.699,-0.6989,-0.6989,0,-0.6348,-0.6364,-0.6435,-0.6456,-0.6487,-0.652,-0.6547,-0.6605,-0.663,-0.669,-0.6701,-0.6744,-0.6782,-0.6841,-0.6893,-0.6936,-0.6954,-0.6939,-0.6961,-0.6945,-0.6954,-0.6952,-0.6954,-0.6933,-0.6932,-0.6932,-0.6931,0,-0.6304,-0.633,-0.6366,-0.6411,-0.6441,-0.648,-0.6521,-0.6535,-0.6602,-0.6628,-0.6668,-0.6697,-0.6754,-0.6796,-0.6845,-0.6879,-0.6916,-0.6923,-0.6925,-0.6909,-0.6888,-0.6899,-0.6955,-0.6924,-0.6925,-0.6925,-0.6926,-0.6926,-0.6264,-0.628,-0.6332,-0.6371,-0.6407,-0.6444,-0.6465,-0.6509,-0.6544,-0.6594,-0.6626,-0.6665,-0.6716,-0.6786,-0.6818,-0.6849,-0.6864,-0.6865,-0.6866,-0.6865,-0.686,-0.6883,-0.6858,-0.6858,-0.6859,-0.6859,-0.6859,0,-0.6222,-0.6259,-0.6293,-0.6348,-0.6378,-0.641,-0.6457,-0.648,-0.6513,-0.6557,-0.6593,-0.6639,-0.6679,-0.6734,-0.6778,-0.6792,-0.681,-0.6802,-0.6802,-0.6809,-0.6844,-0.6839,-0.6787,-0.6787,-0.6787,-0.6787,-0.6787,-0.6787,-0.6204,-0.6233,-0.6265,-0.6312,-0.6349,-0.6387,-0.641,-0.6444,-0.648,-0.6529,-0.6562,-0.6598,-0.6646,-0.6694,-0.6733,-0.6748,-0.6761,-0.6748,-0.6768,-0.68,-0.6806,-0.6813,-0.6808,-0.675,-0.675,-0.673,-0.673,-0.673]}]]